Location: Mexico
(19.4000°N, 99.1500°W)
Time: 02:04:24
(UTC-06:00)

ISS - Pass Details

Date: 22 November 2017
Orbit: 402 x 407 km, 51.6° (Epoch: 21 November)

Event Time Altitude Azimuth Distance (km) Brightness Sun altitude
Rises 19:16:27 0° 221° (SW) 2,310 1.0 -18.7°
Reaches altitude 10° 19:18:32 10° 222° (SW) 1,452 -0.2 -19.1°
Maximum altitude 19:21:47 77° 308° (NW) 415 -3.8 -19.9°
Enters shadow 19:21:55 75° 344° (NNW) 420 -3.9 -19.9°
